TimeAKST,TemperatureF,Dew PointF,Humidity,Sea Level PressureIn,VisibilityMPH,Wind Direction,Wind SpeedMPH,Gust SpeedMPH,PrecipitationIn,Events,Conditions,WindDirDegrees,DateUTC
12:16 AM,-20.2,-9999,N/A,30.13,10.0,Calm,Calm,-,N/A,,Clear,0,2012-11-30 09:16:00
12:36 AM,-18.4,-9999,N/A,30.12,10.0,Calm,Calm,-,N/A,,Partly Cloudy,0,2012-11-30 09:36:00
12:56 AM,-20.2,-9999,N/A,30.12,10.0,Calm,Calm,-,N/A,,Scattered Clouds,0,2012-11-30 09:56:00
1:16 AM,-22.0,-9999,N/A,30.12,10.0,Calm,Calm,-,N/A,,Scattered Clouds,0,2012-11-30 10:16:00
1:36 AM,-20.2,-9999,N/A,30.12,10.0,Calm,Calm,-,N/A,,Scattered Clouds,0,2012-11-30 10:36:00
1:56 AM,-20.2,-9999,N/A,30.11,10.0,Calm,Calm,-,N/A,,Scattered Clouds,0,2012-11-30 10:56:00
2:16 AM,-22.0,-9999,N/A,30.11,10.0,Calm,Calm,-,N/A,,Partly Cloudy,0,2012-11-30 11:16:00
2:36 AM,-22.0,-9999,N/A,30.11,10.0,Calm,Calm,-,N/A,,Clear,0,2012-11-30 11:36:00
2:56 AM,-22.0,-9999,N/A,30.10,10.0,Calm,Calm,-,N/A,,Scattered Clouds,0,2012-11-30 11:56:00
3:16 AM,-18.4,-25.6,70,30.10,10.0,Calm,Calm,-,N/A,,Scattered Clouds,0,2012-11-30 12:16:00
3:36 AM,-22.0,-9999,N/A,30.10,10.0,Calm,Calm,-,N/A,,Partly Cloudy,0,2012-11-30 12:36:00
3:56 AM,-20.2,-20.2,100,30.08,10.0,Calm,Calm,-,N/A,,Clear,0,2012-11-30 12:56:00
4:16 AM,-22.0,-9999,N/A,30.08,10.0,Calm,Calm,-,N/A,,Clear,0,2012-11-30 13:16:00
4:36 AM,-22.0,-9999,N/A,30.08,10.0,Calm,Calm,-,N/A,,Clear,0,2012-11-30 13:36:00
4:56 AM,-23.8,-9999,N/A,30.08,10.0,Calm,Calm,-,N/A,,Clear,0,2012-11-30 13:56:00
5:16 AM,-23.8,-9999,N/A,30.07,10.0,Calm,Calm,-,N/A,,Clear,0,2012-11-30 14:16:00
5:36 AM,-22.0,-29.2,69,30.06,10.0,Calm,Calm,-,N/A,,Scattered Clouds,0,2012-11-30 14:36:00
5:56 AM,-23.8,-9999,N/A,30.06,10.0,Calm,Calm,-,N/A,,Scattered Clouds,0,2012-11-30 14:56:00
6:16 AM,-23.8,-9999,N/A,30.06,10.0,Calm,Calm,-,N/A,,Mostly Cloudy,0,2012-11-30 15:16:00
6:36 AM,-22.0,-9999,N/A,30.06,10.0,Calm,Calm,-,N/A,,Overcast,0,2012-11-30 15:36:00
6:56 AM,-23.8,-9999,N/A,30.05,10.0,Calm,Calm,-,N/A,,Overcast,0,2012-11-30 15:56:00
7:16 AM,-25.6,-9999,N/A,30.04,10.0,Calm,Calm,-,N/A,,Scattered Clouds,0,2012-11-30 16:16:00
7:36 AM,-23.8,-9999,N/A,30.04,10.0,Calm,Calm,-,N/A,,Clear,0,2012-11-30 16:36:00
7:56 AM,-25.6,-9999,N/A,30.04,10.0,Calm,Calm,-,N/A,,Clear,0,2012-11-30 16:56:00
8:16 AM,-25.6,-9999,N/A,30.02,10.0,Calm,Calm,-,N/A,,Clear,0,2012-11-30 17:16:00
8:36 AM,-25.6,-9999,N/A,30.02,10.0,Calm,Calm,-,N/A,,Clear,0,2012-11-30 17:36:00
8:56 AM,-25.6,-9999,N/A,30.02,10.0,Calm,Calm,-,N/A,,Clear,0,2012-11-30 17:56:00
9:16 AM,-25.6,-9999,N/A,30.00,10.0,Calm,Calm,-,N/A,,Clear,0,2012-11-30 18:16:00
9:36 AM,-25.6,-9999,N/A,30.00,10.0,Calm,Calm,-,N/A,,Clear,0,2012-11-30 18:36:00
9:56 AM,-23.8,-9999,N/A,29.99,8.0,Calm,Calm,-,N/A,,Clear,0,2012-11-30 18:56:00
10:16 AM,-23.8,-9999,N/A,29.99,8.0,Calm,Calm,-,N/A,,Clear,0,2012-11-30 19:16:00
10:36 AM,-25.6,-9999,N/A,29.99,7.0,Calm,Calm,-,N/A,,Clear,0,2012-11-30 19:36:00
10:56 AM,-27.4,-9999,N/A,29.99,10.0,Calm,Calm,-,N/A,,Clear,0,2012-11-30 19:56:00
11:16 AM,-27.4,-9999,N/A,29.99,5.0,Calm,Calm,-,N/A,,Clear,0,2012-11-30 20:16:00
11:36 AM,-27.4,-9999,N/A,29.99,10.0,Calm,Calm,-,N/A,,Clear,0,2012-11-30 20:36:00
11:56 AM,-27.4,-9999,N/A,29.98,10.0,Calm,Calm,-,N/A,,Clear,0,2012-11-30 20:56:00
12:16 PM,-27.4,-9999,N/A,29.98,8.0,Calm,Calm,-,N/A,,Clear,0,2012-11-30 21:16:00
12:36 PM,-25.6,-9999,N/A,29.97,8.0,Calm,Calm,-,N/A,,Clear,0,2012-11-30 21:36:00
12:56 PM,-27.4,-9999,N/A,29.97,5.0,Calm,Calm,-,N/A,,Clear,0,2012-11-30 21:56:00
1:16 PM,-25.6,-9999,N/A,29.96,9.0,Calm,Calm,-,N/A,,Clear,0,2012-11-30 22:16:00
1:36 PM,-25.6,-9999,N/A,29.96,10.0,Calm,Calm,-,N/A,,Clear,0,2012-11-30 22:36:00
1:56 PM,-27.4,-9999,N/A,29.94,10.0,Calm,Calm,-,N/A,,Clear,0,2012-11-30 22:56:00
2:16 PM,-27.4,-9999,N/A,29.94,10.0,Calm,Calm,-,N/A,,Clear,0,2012-11-30 23:16:00
2:36 PM,-25.6,-27.4,91,29.94,10.0,Calm,Calm,-,N/A,,Partly Cloudy,0,2012-11-30 23:36:00
2:56 PM,-27.4,-9999,N/A,29.93,10.0,Calm,Calm,-,N/A,,Scattered Clouds,0,2012-11-30 23:56:00
3:16 PM,-27.4,-9999,N/A,29.92,9.0,Calm,Calm,-,N/A,,Mostly Cloudy,0,2012-12-01 00:16:00
3:36 PM,-27.4,-9999,N/A,29.91,10.0,Calm,Calm,-,N/A,,Mostly Cloudy,0,2012-12-01 00:36:00
3:56 PM,-27.4,-9999,N/A,29.91,10.0,Calm,Calm,-,N/A,,Partly Cloudy,0,2012-12-01 00:56:00
4:16 PM,-27.4,-9999,N/A,29.91,8.0,Calm,Calm,-,N/A,,Clear,0,2012-12-01 01:16:00
4:36 PM,-27.4,-9999,N/A,29.91,5.0,Calm,Calm,-,N/A,,Clear,0,2012-12-01 01:36:00
4:56 PM,-25.6,-9999,N/A,29.91,9.0,Calm,Calm,-,N/A,,Clear,0,2012-12-01 01:56:00
5:16 PM,-25.6,-9999,N/A,29.90,10.0,Calm,Calm,-,N/A,,Partly Cloudy,0,2012-12-01 02:16:00
5:36 PM,-27.4,-9999,N/A,29.90,8.0,Calm,Calm,-,N/A,,Clear,0,2012-12-01 02:36:00
5:56 PM,-27.4,-9999,N/A,29.90,10.0,Calm,Calm,-,N/A,,Clear,0,2012-12-01 02:56:00
6:16 PM,-25.6,-9999,N/A,29.90,10.0,NNE,3.5,-,N/A,,Clear,30,2012-12-01 03:16:00
6:36 PM,-25.6,-9999,N/A,29.89,10.0,Calm,Calm,-,N/A,,Clear,0,2012-12-01 03:36:00
6:56 PM,-27.4,-9999,N/A,29.89,10.0,Calm,Calm,-,N/A,,Clear,0,2012-12-01 03:56:00
7:16 PM,-27.4,-9999,N/A,29.88,10.0,Calm,Calm,-,N/A,,Clear,0,2012-12-01 04:16:00
7:36 PM,-27.4,-9999,N/A,29.88,10.0,Calm,Calm,-,N/A,,Clear,0,2012-12-01 04:36:00
7:56 PM,-27.4,-9999,N/A,29.88,10.0,Calm,Calm,-,N/A,,Clear,0,2012-12-01 04:56:00
8:16 PM,-27.4,-9999,N/A,29.87,10.0,Calm,Calm,-,N/A,,Clear,0,2012-12-01 05:16:00
8:36 PM,-25.6,-9999,N/A,29.86,10.0,Calm,Calm,-,N/A,,Clear,0,2012-12-01 05:36:00
8:56 PM,-25.6,-9999,N/A,29.86,10.0,Calm,Calm,-,N/A,,Clear,0,2012-12-01 05:56:00
9:16 PM,-25.6,-9999,N/A,29.86,9.0,Calm,Calm,-,N/A,,Clear,0,2012-12-01 06:16:00
9:36 PM,-25.6,-9999,N/A,29.86,10.0,Calm,Calm,-,N/A,,Clear,0,2012-12-01 06:36:00
9:56 PM,-23.8,-9999,N/A,29.85,10.0,Calm,Calm,-,N/A,,Clear,0,2012-12-01 06:56:00
10:16 PM,-23.8,-9999,N/A,29.84,9.0,Calm,Calm,-,N/A,,Clear,0,2012-12-01 07:16:00
10:36 PM,-23.8,-9999,N/A,29.84,9.0,Calm,Calm,-,N/A,,Clear,0,2012-12-01 07:36:00
10:56 PM,-23.8,-9999,N/A,29.84,6.0,Calm,Calm,-,N/A,,Clear,0,2012-12-01 07:56:00
11:16 PM,-23.8,-9999,N/A,29.84,8.0,Calm,Calm,-,N/A,,Clear,0,2012-12-01 08:16:00
11:36 PM,-23.8,-9999,N/A,29.84,9.0,Calm,Calm,-,N/A,,Clear,0,2012-12-01 08:36:00
11:56 PM,-23.8,-25.6,91,29.84,10.0,Calm,Calm,-,N/A,,Clear,0,2012-12-01 08:56:00